Location: Krakow
(50.0830°N, 19.9170°E)
Time: 18:25:55
(UTC+01:00)

SR - Pass Details

Date: 14 February 2023
Orbit: 582 x 867 km, 66.7° (Epoch: 20 March)

Event Time Altitude Azimuth Distance (km) Brightness Sun altitude
Rises 13:11:34 0° 248° (WSW) 3,114 ? 24.7°
Reaches altitude 10° 13:14:16 10° 260° (W) 2,146 ? 24.5°
Maximum altitude 13:18:29 29° 320° (NW) 1,203 ? 24.3°
Drops below altitude 10° 13:22:27 10° 22° (NNE) 2,012 ? 24.0°
Sets 13:24:55 0° 34° (NNE) 2,887 ? 23.9°
